Regional Weather Roundup
Issued by NWS

Home | Current Version | Previous Version | Graphics & Text | Print | Product List | Glossary On
Versions: 1 2 3 4 5 6 7 8 9 10 11 12 13 14 15 16 17 18 19 20 21 22 23 24 25 26 27 28 29 30 31 32 33 34 35 36 37 38 39 40 41 42 43 44 45 46 47 48 49 50
000
ASUS45 KBOU 281907
RWRCO

WEATHER ROUNDUP FOR COLORADO
NATIONAL WEATHER SERVICE DENVER/BOULDER CO
100 PM MDT THU JUL 28 2016

NOTE: "FAIR" INDICATES FEW OR NO CLOUDS BELOW 12000 FEET WITH NO
SIGNIFICANT WEATHER AND/OR OBSTRUCTIONS TO VISIBILITY.

COZ001>005-013-030-031-282000-
...NORTHWEST COLORADO...

CITY           SKY/WX    TMP DP  RH WIND       PRES   REMARKS
CRAIG          FAIR      89  23   9 NW9       30.23F
HAYDEN         FAIR      84  28  13 NW9       30.26F
MEEKER         FAIR      90  32  12 S6        30.23F
MOUNT WERNER   NOT AVBL
STEAMBOAT SPGS FAIR      83  31  15 S5        30.28S
WALDEN         FAIR      77  23  13 W8        30.36F
$$

COZ006>008-011-282000-
...WEST CENTRAL VALLEYS...

CITY           SKY/WX    TMP DP  RH WIND       PRES   REMARKS
GRAND JUNCTION FAIR      95  28   9 VRB3      30.10F
MONTROSE       FAIR      93  32  11 N6        30.19F
EAGLE          SUNNY     88  30  12 CALM      30.25F
RIFLE          FAIR      93  31  11 N5        30.15F
DELTA          NOT AVBL
NUCLA          NOT AVBL
$$

COZ017>023-064>068-282000-
...SOUTHWEST COLORADO...

CITY           SKY/WX    TMP DP  RH WIND       PRES   REMARKS
DURANGO        FAIR      88  41  19 SE7       30.28F
CORTEZ         FAIR      93  43  17 SW7       30.21F
PAGOSA SPRINGS FAIR      85  35  16 W5        30.37F
TELLURIDE      FAIR      80  23  12 W10G24    30.51
WOLF CREEK PAS CLOUDY    59  37  44 SW13G18   30.76F
$$

COZ009-010-012-014-032>034-037-058>063-282000-
...CENTRAL COLORADO...

CITY           SKY/WX    TMP DP  RH WIND       PRES   REMARKS
ASPEN          FAIR      86  25  11 NW14G22   30.35F
BUENA VISTA    FAIR      88  15   6 NW23G31   30.34S
COPPER MTN     FAIR      68  10  10 W22G35    30.73R
BERTHOUD PASS  FAIR      55  41  58 NW30G40   30.73S
COTTONWOOD PAS FAIR      82   0   4 NW6G16    30.52S
GUNNISON       FAIR      82  36  18 W5        30.38F
KREMMLING      FAIR      84  18   8 NW6       30.32F
LEADVILLE      FAIR      75  16  10 NW9G24    30.52S
MONARCH PASS   PTSUNNY   63  25  23 W17       30.82S
SALIDA         FAIR      87  31  13 SW8       30.38S
SUNLIGHT       NOT AVBL
WILKERSON PASS PTSUNNY   70  18  13 N8G21     30.67S
$$

COZ069>075-282000-
...SAN LUIS VALLEY/SANGRE DE CRISTO MOUNTAINS...

CITY           SKY/WX    TMP DP  RH WIND       PRES   REMARKS
ALAMOSA        FAIR      83  40  21 CALM      30.34F
LA VETA PASS   FAIR      79  32  18 SW8       30.56S
SAGUACHE       FAIR      82  41  23 S5        30.37F
$$

COZ035-036-038>040-282000-
...NORTHERN COLORADO FRONT RANGE...

CITY           SKY/WX    TMP DP  RH WIND       PRES   REMARKS
DENVER INTL AP FAIR      79  57  46 N12G23    30.21R
DMNS CITY PARK   N/A     78  54  42 NE10G28   30.20S
AURORA         NOT AVBL
FRONT RANGE AP MOSUNNY   82  57  42 N15G25    30.22R
ERIE MUNI ARPT FAIR      79  55  42 NE12G24   30.21R
BOULDER MUN AP PTSUNNY   79  55  44 NE15G22   30.22R
CENTENNIAL     FAIR      79  56  45 N17       30.22S
BROOMFIELD     PTSUNNY   81  57  44 N20G25    30.25R
LONGMONT       NOT AVBL
$$

COZ041-046-047-076>085-087-088-282000-
...PIKES PEAK/PALMER DIVIDE AND SOUTHERN FOOTHILLS...

CITY           SKY/WX    TMP DP  RH WIND       PRES   REMARKS
COLO. SPRINGS  FAIR      86  52  30 VRB6      30.21F
A. F. ACADEMY  NOT AVBL
SCHRIEVER AFB  NOT AVBL
ELLICOTT       NOT AVBL
FALCON         FAIR      87  46  23 CALM      30.27
FORT CARSON    NOT AVBL
LIMON          FAIR      88  51  28 VRB5      30.14F
MONUMENT HILL  FAIR      79  45  29 N9        30.30S
TRINIDAD       NOT AVBL
$$

COZ042>045-048>051-090-091-282000-
...NORTHEAST COLORADO...

CITY           SKY/WX    TMP DP  RH WIND       PRES   REMARKS
GREELEY ARPT   FAIR      79  59  50 E16G23    30.20R
AKRON          FAIR      74  56  53 NE15G22   30.19F
BURLINGTON     FAIR      80  61  52 E10       30.14R
WRAY           CLOUDY    77  59  53 N9        30.17
STERLING       NOT AVBL
HOLYOKE        NOT AVBL
FORT MORGAN    NOT AVBL
$$

COZ086-089-092>099-282000-
...SOUTHEAST COLORADO...

CITY           SKY/WX    TMP DP  RH WIND       PRES   REMARKS
PUEBLO         FAIR      92  55  28 VRB6      30.07F
LA JUNTA       FAIR      93  58  30 N8        30.05F
LAMAR          FAIR      99  55  23 S13G21    30.00F
SPRINGFIELD      N/A     93  55  27 S28G37    30.06F
$$



USA.gov is the U.S. government's official web portal to all federal, state and local government web resources and services.